St.-Anicet, Quebec

2:45 PM EDT on July 26, 2017 (GMT -0400)
St.-Anicet

Weather History for CWBZ - November, 2013

Change the Weather History Date:

Saturday, November 16, 2013

  Actual Average Record
Temperature  
Mean Temperature 42 °F -  
Max Temperature 57 °F - - ()
Min Temperature 27 °F - - ()
Degree Days  
Heating Degree Days 23    
Moisture  
Dew Point 30 °F    
Average Humidity 72    
Maximum Humidity 96    
Minimum Humidity 33    
Precipitation  
Precipitation 0.00 in - - ()
Sea Level Pressure  
Sea Level Pressure 30.19 in    
Wind  
Wind Speed 3 mph ()    
Max Wind Speed 9 mph    
Max Gust Speed -    
T = Trace of Precipitation, MM = Missing Value Source: Averaged Metar Reports

Daily Weather History Graph

Daily Weather History Graph

Search for Another Location

Airport or City:

Trip Planner

Search our weather history database for the weather conditions in past years. The results will help you decide how hot, cold, wet, or windy it might be!

Date:

Astronomy

Nov. 16, 2013 Rise Set
Actual Time 6:56 AM EST 4:26 PM EST
Civil Twilight 6:24 AM EST 4:58 PM EST
Nautical Twilight 5:49 AM EST 5:34 PM EST
Astronomical Twilight 5:14 AM EST 6:09 PM EST
Moon 4:01 PM EST (11/16) 5:48 AM EST (11/16)
Length of Visible Light 10h 33m
Length of Day
9h 29m
Waxing Gibbous, 99% of the Moon is Illuminated
Nov 16
Waxing Gibbous
Nov 17
Full
Nov 25
Last Quarter
Dec 2
New
Dec 9
First Quarter

Hourly Weather History & Observations

Time (EST) Temp. Windchill Dew Point Humidity Pressure Visibility Wind Dir Wind Speed Gust Speed Precip Events Conditions
12:00 AM 31.6 °F - 25.2 °F 77% 30.13 in - WSW 2.3 mph - N/A   Unknown
1:00 AM 35 °F - 27 °F 61% 30.12 in - WSW 3.5 mph - -  
1:00 AM 34.9 °F 32.0 °F 26.6 °F 72% 30.12 in - WSW 3.5 mph - N/A   Unknown
2:00 AM 33.4 °F - 28.4 °F 82% 30.13 in - SW 1.2 mph - N/A   Unknown
3:00 AM 38.1 °F 35.7 °F 27.3 °F 65% 30.15 in - WSW 3.5 mph - N/A   Unknown
4:00 AM 33.1 °F - 28.6 °F 84% 30.16 in - SSW 2.3 mph - N/A   Unknown
5:00 AM 31.8 °F - 28.8 °F 88% 30.17 in - Calm Calm - N/A   Unknown
6:00 AM 27.9 °F - 25.9 °F 92% 30.18 in - NNW 1.2 mph - N/A   Unknown
7:00 AM 28 °F - 26 °F 87% 30.20 in - ENE 1.2 mph - -  
7:00 AM 27.7 °F - 25.7 °F 92% 30.20 in - ENE 1.2 mph - N/A   Unknown
8:00 AM 31.8 °F - 30.4 °F 94% 30.22 in - NNE 1.2 mph - N/A   Unknown
9:00 AM 43.9 °F - 31.8 °F 63% 30.23 in - Calm Calm - N/A   Unknown
10:00 AM 50.0 °F - 28.6 °F 44% 30.24 in - South 2.3 mph - N/A   Unknown
11:00 AM 54.3 °F - 30.7 °F 41% 30.25 in - SW 5.8 mph - N/A   Unknown
12:00 PM 55.2 °F - 33.8 °F 44% 30.24 in - WSW 9.2 mph - N/A   Unknown
1:00 PM 56 °F - 35 °F 33% 30.22 in - West 8.1 mph - -  
1:00 PM 56.1 °F - 35.2 °F 45% 30.22 in - West 8.1 mph - N/A   Unknown
2:00 PM 56.8 °F - 34.0 °F 42% 30.22 in - WSW 8.1 mph - N/A   Unknown
3:00 PM 56.7 °F - 31.8 °F 39% 30.21 in - WSW 6.9 mph - N/A   Unknown
4:00 PM 54.1 °F - 32.9 °F 45% 30.21 in - WNW 1.2 mph - N/A   Unknown
5:00 PM 37.8 °F - 30.4 °F 75% 30.22 in - East 1.2 mph - N/A   Unknown
6:00 PM 34.2 °F 31.2 °F 31.5 °F 90% 30.22 in - NE 3.5 mph - N/A   Unknown
7:00 PM 32 °F - 31 °F 93% 30.21 in - ENE 3.5 mph - -  
7:00 PM 31.6 °F 28.3 °F 30.7 °F 96% 30.21 in - ENE 3.5 mph - N/A   Unknown
8:00 PM 30.4 °F - 27.9 °F 90% 30.20 in - ENE 2.3 mph - N/A   Unknown
9:00 PM 30.4 °F - 29.1 °F 95% 30.19 in - ESE 2.3 mph - N/A   Unknown
10:00 PM 30.0 °F - 28.9 °F 96% 30.19 in - ENE 1.2 mph - N/A   Unknown
11:00 PM 29.5 °F - 28.0 °F 94% 30.19 in - NE 1.2 mph - N/A   Unknown